Temp
3 3 3 3 3 3 3 3 3 3 3 3 3 3 2 2 2 3 3 3 3 3 3 3 3 2 2 2 2 2 2 2 2 2 2 1 1 1 2 2 2 1
3 3 3 3 3 3 3 3 3 3 3 3 3 3 3 3 3 3 3 3 3 3 3 3 2 2 2 2 2 2 2 2 2 2 2 1 1 1 1 1 1 1
3 3 3 3 3 3 3 3 3 3 3 3 3 3 3 3 3 3 3 3 3 3 3 3 2 2 2 2 2 2 2 2 2 2 2 1 1 1 1 1 1 1
3 3 3 3 3 3 3 3 3 2 3 3 3 3 3 3 3 3 3 3 3 3 3 3 2 2 2 2 2 2 2 2 2 2 2 2 1 1 1 1 2 2
3 3 3 3 3 3 3 3 2 2 2 2 2 2 3 3 3 3 3 3 3 3 3 3 3 3 2 2 2 2 2 2 2 2 2 2 2 2 2 2 2 2
3 3 3 3 3 3 3 3 2 2 2 2 2 2 2 3 3 3 3 3 3 3 3 3 3 3 3 2 2 2 2 2 2 2 2 2 2 2 2 2 2 1
3 3 3 3 3 3 3 2 2 2 2 2 2 2 2 3 3 3 3 3 3 3 3 3 3 3 3 2 2 2 2 2 2 2 2 2 2 2 2 2 1 1
2 3 3 3 3 3 2 2 2 2 2 2 2 2 2 2 2 3 3 3 3 3 3 3 3 2 2 2 2 2 2 2 2 2 2 2 2 2 2 1 1 1
2 3 3 3 3 2 2 2 2 2 2 2 2 2 2 2 2 2 2 2 2 2 2 2 2 2 2 2 2 2 2 2 2 2 2 2 2 2 2 2 1 1
2 2 2 2 2 2 2 2 2 2 2 2 2 1 1 2 2 2 2 2 2 2 2 2 2 2 2 2 2 2 1 1 1 1 1 1 1 1 1 1 1 1
2 2 2 2 2 3 3 2 2 2 2 2 2 1 1 2 2 2 2 2 2 2 1 1 1 1 1 1 1 1 1 1 1 1 1 1 1 1 1 1 1 1
2 2 2 2 2 2 3 2 2 2 2 2 2 1 1 1 2 1 1 1 1 1 1 1 1 1 1 1 1 1 1 1 1 1 1 1 1 1 1 1 1 1
2 2 2 2 2 2 2 2 2 2 2 2 1 1 1 1 1 1 1 1 1 1 1 1 1 1 1 1 1 1 1 1 1 1 1 1 1 1 0 1 0 0
2 2 2 2 2 2 2 2 2 2 2 2 1 1 1 1 1 1 1 1 1 1 1 1 1 1 1 0 0 0 0 0 0 0 0 0 0 0 0 0 0 -0
2 2 2 2 2 2 2 2 2 1 1 2 2 2 1 1 1 1 1 1 1 1 1 1 0 0 0 0 0 0 0 0 0 0 0 0 0 -0 -0 -0 -0 -1
2 2 2 2 2 2 2 1 1 1 1 1 1 2 1 1 1 1 1 1 1 1 0 0 0 0 0 0 0 0 0 0 -0 -0 -0 -0 -0 -0 -0 -1 -1 -1
1 1 1 1 1 1 1 1 1 1 1 1 1 1 1 1 1 1 1 1 0 0 0 0 0 -0 -0 0 0 0 0 0 -0 -0 -0 -0 -0 -0 -0 -0 -0 -1
1 1 1 1 1 1 1 1 1 1 1 1 1 1 1 1 1 1 1 1 0 0 0 -0 -0 -0 -0 0 0 0 0 0 0 0 -0 -0 -0 -0 -0 -0 -0 -1
0 1 0 0 0 1 1 1 1 1 1 1 1 1 1 1 1 1 1 1 1 0 0 -0 -0 -0 -0 -0 -0 -0 -0 0 0 -0 -0 -0 -1 -0 -0 -0 -1 -1
0 0 0 -0 0 0 0 1 1 1 1 1 0 0 0 0 1 1 1 1 0 0 -0 -0 -1 -1 -1 -0 -0 -0 -0 -0 -0 -1 -1 -1 -1 -1 -1 -1 -1 -1
0 0 -0 -0 -0 -0 0 0 0 0 0 0 0 -0 -0 -0 -0 -0 0 0 0 -0 -0 -1 -1 -1 -1 -1 -1 -1 -1 -1 -1 -1 -1 -1 -1 -1 -1 -1 -1 -1
0 0 -0 -0 -0 -0 0 0 0 0 -0 -0 -0 -0 -0 -0 -0 -0 -0 -0 -0 -0 -0 -0 -0 -1 -1 -1 -1 -1 -1 -1 -1 -1 -1 -1 -1 -1 -1 -1 -1 -1
-1 -0 -0 -0 -0 -0 -0 -0 -0 -0 -0 -0 -0 -0 -0 -0 -0 -0 -0 -0 -0 -0 -0 -0 -0 -0 -1 -1 -1 -1 -1 -1 -1 -1 -1 -1 -1 -2 -2 -1 -1 -1
-1 -1 -1 -1 -1 -1 -1 -0 -0 -1 -1 -1 -1 -0 -0 -0 -0 -0 -0 -0 -0 -0 -0 -0 -0 -1 -1 -1 -1 -1 -1 -0 -0 -0 -0 -1 -1 -1 -2 -1 -1 -2
-1 -1 -1 -1 -1 -1 -1 -1 -1 -1 -1 -1 -1 -1 -1 -1 -1 -1 -1 -1 -1 -1 -1 -1 -1 -1 -1 -1 -1 -1 -1 -1 -0 -0 -1 -1 -1 -1 -1 -1 -1 -2
-2 -2 -2 -2 -2 -2 -2 -2 -1 -1 -1 -1 -1 -1 -1 -1 -1 -1 -1 -1 -1 -1 -1 -1 -1 -1 -2 -1 -1 -1 -1 -1 -1 -1 -1 -1 -2 -2 -2 -2 -2 -2
Height
3135 3136 3137 3137 3138 3138 3138 3138 3138 3138 3137 3137 3136 3134 3133 3132 3131 3131 3131 3131 3131 3131 3132 3132 3133 3134 3135 3136 3136 3137 3138 3139 3140 3140 3141 3142 3143 3143 3144 3145 3145 3146
3133 3134 3135 3136 3136 3137 3137 3137 3137 3137 3136 3136 3135 3134 3133 3132 3132 3131 3131 3130 3131 3131 3131 3132 3132 3133 3134 3135 3136 3137 3138 3138 3139 3140 3141 3142 3143 3144 3144 3145 3146 3147
3131 3132 3133 3134 3135 3136 3136 3136 3136 3136 3136 3135 3135 3134 3133 3133 3132 3131 3131 3130 3130 3131 3131 3132 3132 3133 3134 3135 3136 3137 3137 3138 3139 3140 3141 3142 3143 3143 3144 3145 3146 3147
3129 3130 3131 3132 3133 3134 3135 3135 3135 3135 3134 3134 3134 3133 3133 3132 3132 3131 3131 3131 3131 3131 3131 3132 3132 3133 3134 3135 3136 3137 3137 3138 3139 3140 3141 3142 3143 3143 3144 3145 3146 3146
3126 3128 3130 3131 3132 3133 3133 3133 3133 3133 3133 3133 3132 3132 3132 3132 3131 3131 3131 3131 3131 3131 3131 3132 3132 3133 3134 3135 3136 3137 3138 3138 3139 3140 3140 3141 3142 3143 3144 3145 3146 3146
3124 3126 3128 3130 3131 3131 3131 3131 3131 3131 3131 3131 3131 3131 3131 3131 3131 3131 3130 3131 3131 3131 3132 3132 3133 3133 3134 3135 3136 3137 3138 3139 3140 3140 3141 3142 3143 3144 3144 3145 3146 3147
3122 3125 3126 3128 3129 3129 3129 3129 3130 3130 3130 3130 3130 3130 3130 3130 3130 3130 3130 3130 3131 3131 3132 3133 3133 3134 3134 3135 3136 3138 3139 3140 3141 3141 3142 3143 3143 3144 3145 3146 3147 3147
3121 3123 3125 3126 3127 3127 3127 3128 3128 3128 3128 3128 3128 3129 3129 3129 3130 3130 3130 3130 3131 3132 3132 3133 3134 3134 3135 3136 3137 3138 3139 3141 3142 3143 3143 3144 3144 3145 3146 3146 3147 3148
3120 3122 3123 3124 3125 3125 3125 3126 3127 3126 3126 3127 3127 3127 3128 3128 3129 3129 3130 3130 3131 3132 3132 3133 3134 3135 3136 3137 3137 3138 3140 3141 3142 3143 3144 3144 3145 3146 3146 3147 3147 3148
3118 3120 3121 3122 3123 3123 3124 3124 3125 3125 3125 3125 3126 3126 3127 3127 3128 3129 3130 3130 3131 3132 3133 3134 3135 3135 3136 3137 3138 3139 3140 3141 3142 3143 3144 3144 3145 3145 3146 3147 3147 3148
3116 3117 3118 3120 3120 3121 3122 3123 3123 3124 3124 3124 3124 3125 3126 3127 3128 3128 3129 3130 3131 3132 3133 3134 3135 3136 3136 3137 3138 3139 3140 3141 3142 3143 3144 3144 3144 3145 3146 3146 3147 3147
3112 3113 3114 3116 3118 3119 3120 3121 3122 3122 3122 3123 3123 3124 3125 3126 3127 3128 3129 3130 3130 3131 3132 3133 3134 3135 3136 3137 3137 3138 3139 3140 3141 3142 3143 3143 3144 3144 3145 3145 3146 3146
3110 3111 3111 3113 3116 3117 3118 3119 3120 3120 3121 3121 3122 3122 3123 3124 3126 3127 3128 3129 3129 3130 3131 3132 3133 3134 3135 3136 3137 3137 3138 3139 3140 3141 3141 3142 3143 3143 3143 3144 3144 3145
3108 3108 3110 3112 3114 3116 3117 3117 3118 3119 3119 3119 3120 3121 3122 3123 3124 3126 3127 3128 3128 3129 3130 3131 3132 3133 3134 3135 3136 3136 3137 3138 3139 3139 3140 3140 3141 3141 3141 3142 3143 3143
3107 3108 3110 3111 3113 3115 3115 3116 3117 3117 3118 3119 3119 3120 3121 3122 3123 3124 3126 3126 3127 3128 3129 3130 3131 3132 3133 3134 3135 3135 3136 3137 3137 3138 3138 3138 3139 3139 3139 3139 3140 3140
3108 3109 3110 3111 3112 3114 3114 3115 3115 3116 3117 3118 3118 3118 3120 3121 3122 3123 3124 3125 3126 3126 3127 3128 3129 3130 3131 3133 3133 3134 3135 3135 3136 3136 3136 3136 3136 3136 3136 3136 3136 3136
3108 3108 3109 3110 3111 3112 3113 3113 3114 3114 3116 3117 3117 3118 3119 3120 3121 3121 3122 3123 3124 3125 3125 3126 3126 3127 3129 3130 3131 3131 3132 3132 3133 3133 3133 3133 3133 3133 3132 3130 3130 3132
3107 3107 3108 3109 3110 3111 3112 3112 3112 3113 3114 3115 3116 3117 3117 3118 3119 3120 3120 3121 3122 3123 3123 3124 3123 3125 3127 3128 3128 3128 3128 3129 3130 3130 3130 3130 3130 3129 3127 3126 3128 3131
3106 3106 3107 3108 3109 3110 3111 3111 3111 3112 3112 3113 3114 3116 3117 3118 3119 3119 3119 3119 3120 3121 3122 3121 3121 3123 3125 3126 3126 3126 3126 3126 3126 3127 3127 3127 3127 3125 3123 3124 3127 3129
3104 3105 3106 3106 3107 3108 3108 3109 3110 3111 3111 3112 3112 3113 3114 3116 3116 3117 3117 3117 3118 3118 3119 3118 3118 3120 3123 3124 3124 3124 3124 3124 3123 3123 3123 3123 3123 3122 3122 3122 3123 3123
3102 3104 3105 3105 3106 3106 3107 3107 3107 3107 3108 3108 3108 3108 3110 3111 3112 3114 3115 3115 3115 3116 3116 3115 3115 3116 3119 3121 3122 3122 3121 3121 3121 3120 3120 3119 3118 3118 3120 3120 3119 3119
3101 3102 3103 3103 3104 3105 3106 3106 3106 3106 3106 3106 3106 3106 3107 3108 3109 3111 3112 3112 3112 3113 3113 3112 3112 3112 3114 3115 3117 3118 3118 3118 3118 3117 3117 3116 3113 3113 3115 3116 3116 3116
3099 3100 3101 3101 3102 3103 3103 3104 3105 3105 3105 3104 3104 3105 3105 3105 3106 3107 3108 3109 3109 3109 3110 3109 3109 3108 3109 3111 3113 3114 3114 3114 3114 3114 3114 3113 3111 3110 3110 3110 3111 3112
3097 3098 3098 3099 3100 3101 3101 3102 3103 3103 3103 3102 3102 3102 3102 3102 3103 3103 3103 3104 3105 3105 3106 3106 3105 3104 3105 3108 3109 3110 3110 3110 3110 3110 3110 3109 3108 3107 3106 3106 3108 3108
3095 3095 3095 3096 3097 3099 3099 3100 3100 3100 3100 3100 3099 3099 3099 3099 3099 3099 3099 3099 3100 3100 3101 3101 3101 3101 3102 3104 3105 3105 3106 3106 3105 3105 3105 3104 3104 3104 3103 3104 3105 3105
3093 3093 3093 3093 3094 3096 3096 3096 3096 3096 3097 3096 3096 3095 3095 3095 3095 3095 3095 3095 3095 3095 3096 3097 3098 3098 3098 3100 3100 3100 3101 3101 3101 3101 3100 3100 3100 3100 3100 3101 3102 3101
Wind_Speed
17 16 15 13 13 13 13 14 14 14 16 15 15 12 8 4 1 3 4 3 2 2 3 3 4 5 5 4 4 5 6 7 7 6 6 7 8 10 11 11 10 9
18 17 17 15 14 14 14 14 14 15 16 15 13 10 5 2 0 3 3 2 3 3 3 4 4 5 5 6 6 7 7 7 7 7 7 8 8 9 11 10 10 9
20 18 18 17 16 15 14 14 14 15 15 14 12 8 4 2 0 2 3 2 3 3 4 4 5 5 5 6 7 7 7 7 7 7 7 8 8 9 10 9 9 9
21 20 19 18 16 14 13 13 14 14 14 12 10 7 5 3 1 2 3 3 3 3 4 4 5 5 5 6 6 7 7 7 7 7 7 8 8 9 9 8 8 8
21 21 19 17 15 13 13 13 14 13 12 11 10 7 6 5 3 3 3 3 4 4 4 5 5 6 6 6 6 6 6 7 7 7 8 8 9 9 9 9 9 9
20 20 18 16 14 13 14 14 14 12 11 10 10 8 7 6 4 4 4 4 5 5 5 5 5 6 6 6 6 6 7 7 8 8 8 9 9 10 10 10 10 10
19 18 17 15 14 15 15 15 13 11 10 10 10 9 8 7 5 5 5 5 6 6 6 6 6 6 6 6 7 7 7 7 7 7 8 8 9 10 10 10 10 10
18 17 16 16 15 15 15 14 12 11 11 11 10 9 9 7 6 6 6 6 6 7 7 6 6 6 6 7 7 8 7 7 7 7 8 8 8 8 8 8 8 7
18 17 17 16 14 14 15 12 11 11 12 12 10 9 8 7 7 7 7 8 7 7 7 6 6 6 6 6 7 7 7 6 6 6 5 5 5 5 5 4 4 3
18 17 16 15 13 13 12 10 9 10 10 10 9 8 7 6 7 8 8 8 7 7 6 6 6 6 5 5 5 5 4 4 4 3 2 2 1 1 1 1 1 2
18 16 14 13 11 10 8 6 6 6 6 6 6 7 7 6 6 7 8 8 8 8 7 7 6 6 5 5 5 4 4 4 4 4 4 4 5 4 5 5 5 6
19 18 16 13 10 8 5 4 4 5 5 4 5 6 8 7 7 7 8 8 9 9 9 9 8 8 8 8 7 7 7 7 6 7 8 8 9 9 10 10 10 10
17 16 14 10 7 6 5 6 6 6 6 5 5 6 8 9 9 9 9 9 10 10 10 10 10 11 11 10 10 10 10 10 10 10 11 12 13 13 14 14 14 15
11 10 7 6 6 6 7 8 7 8 8 8 7 6 8 10 11 11 11 11 11 11 11 12 12 12 12 13 13 13 13 13 13 13 14 15 16 17 18 18 18 19
8 7 5 5 6 7 8 8 8 9 10 10 9 8 8 10 12 12 12 13 13 14 14 14 14 14 14 15 15 16 16 16 16 16 17 18 18 19 21 21 21 22
8 7 7 7 8 8 8 8 8 7 7 8 9 10 9 10 12 14 14 14 15 15 16 17 17 18 17 17 18 18 18 18 18 19 20 20 21 22 22 23 24 25
8 8 8 9 9 9 9 9 9 8 7 7 9 10 10 10 12 13 15 15 16 17 17 18 20 21 20 19 20 21 22 22 22 23 23 24 25 25 26 27 27 26
9 9 10 10 10 10 11 11 11 10 10 10 9 9 10 11 12 14 16 17 17 18 19 21 23 23 21 21 22 24 26 26 27 27 27 27 28 29 30 30 26 24
11 10 10 10 10 11 12 13 12 13 13 14 12 11 12 13 14 15 17 19 19 20 21 24 26 25 23 23 23 24 26 28 28 29 29 30 31 33 33 30 27 26
13 12 11 10 11 13 14 15 15 15 16 16 14 12 12 14 14 14 16 18 19 20 21 25 27 26 24 23 24 26 27 28 29 29 30 31 32 33 33 32 30 30
14 14 13 12 13 14 15 17 17 17 18 18 17 16 16 17 17 17 17 18 19 20 21 25 28 27 25 25 26 28 30 30 31 31 33 34 36 36 34 33 32 32
15 15 15 15 15 15 16 19 20 20 20 21 21 20 19 20 20 20 20 20 21 21 23 25 28 28 27 25 25 27 29 30 31 32 34 36 39 39 36 33 31 29
15 16 17 18 17 17 19 22 22 21 21 21 21 21 21 22 22 23 23 23 24 24 25 26 28 29 29 26 23 23 24 26 28 30 32 34 36 37 36 32 28 24
17 18 19 20 19 20 22 23 22 22 22 23 24 25 25 26 26 27 28 28 29 29 29 30 31 31 29 25 23 23 24 25 27 28 29 31 33 33 32 29 24 21
21 21 21 22 22 22 24 25 25 25 26 27 29 30 30 29 29 30 31 32 32 33 32 33 33 32 29 26 26 27 27 27 28 29 29 31 30 29 28 27 24 23
23 23 24 25 25 26 28 30 31 32 32 32 33 33 33 33 33 33 34 34 34 34 34 33 34 33 32 32 32 31 30 29 29 30 30 31 30 28 27 26 25 24
Wind_Direction
234 241 248 255 265 275 286 299 311 321 327 326 330 337 340 338 282 186 161 164 188 192 197 189 178 184 190 191 184 184 190 189 189 192 185 184 187 185 188 197 200 198
232 243 250 256 262 269 283 297 308 318 321 321 325 330 332 338 137 152 142 154 173 180 186 177 174 184 187 186 185 187 193 192 189 189 186 183 179 180 183 184 184 182
231 240 248 255 259 267 283 295 304 312 314 314 318 316 300 290 164 130 129 152 169 175 178 170 171 183 190 188 188 189 192 191 188 185 184 184 180 180 181 177 174 171
228 236 246 254 260 270 285 295 302 307 308 308 310 301 272 255 199 138 137 152 170 171 169 166 165 175 184 184 184 186 187 187 186 182 179 178 176 174 175 170 166 162
225 234 244 253 262 274 287 295 299 302 300 298 299 287 255 241 209 163 154 158 170 167 157 157 157 160 164 169 175 174 172 172 173 175 173 170 167 164 161 156 152 148
224 233 243 253 265 278 288 295 296 294 292 293 293 275 245 235 213 179 168 163 164 157 148 143 140 142 146 150 154 151 153 159 162 164 163 159 158 153 147 142 137 134
224 232 243 256 267 278 287 290 287 283 283 288 286 265 242 233 215 186 171 162 159 153 145 136 131 132 135 137 138 139 145 152 153 153 152 151 151 145 140 137 133 129
223 233 247 257 265 276 283 282 280 279 281 284 278 255 238 227 205 184 169 158 156 153 145 138 134 130 131 135 137 139 143 146 148 150 152 151 149 146 143 137 133 129
229 236 245 253 262 271 273 273 276 278 277 274 264 245 232 215 192 181 170 160 159 158 152 146 141 137 141 145 144 145 146 149 153 155 156 156 153 153 151 142 138 139
225 230 242 254 258 258 261 266 273 276 273 265 252 237 227 210 192 183 174 169 168 167 165 161 159 161 163 162 161 161 162 164 176 185 187 200 214 223 230 236 239 250
220 225 231 238 236 234 241 252 264 276 277 263 246 237 232 222 206 194 185 182 183 183 183 182 185 190 191 193 196 197 204 213 234 255 269 275 283 287 283 281 279 278
217 218 208 205 212 217 225 242 259 270 274 264 249 243 242 237 228 215 203 197 197 200 200 200 203 207 209 214 217 219 227 234 246 261 269 276 283 286 286 286 284 283
208 208 197 193 208 228 243 253 258 257 256 250 244 244 246 245 241 233 225 219 215 215 216 216 219 220 221 226 230 233 238 242 249 258 268 275 280 283 285 285 285 286
207 208 198 203 225 243 252 258 264 265 264 260 254 249 248 249 248 242 237 237 235 234 234 233 232 232 233 236 239 243 248 251 256 262 267 271 275 278 280 281 281 280
215 220 220 236 249 253 255 263 274 277 277 274 266 260 252 248 249 248 244 244 245 246 246 245 243 242 242 245 249 253 256 259 262 265 266 268 271 273 274 276 275 273
221 231 241 250 253 253 253 261 268 273 277 273 268 270 268 254 250 251 250 250 252 254 254 253 252 250 249 252 255 257 259 262 264 265 266 269 270 270 271 273 271 271
224 231 239 244 246 248 251 258 265 266 261 257 260 267 269 265 264 265 262 258 256 256 257 258 256 254 255 258 260 261 264 265 266 267 268 269 272 273 271 266 265 268
227 232 234 237 239 245 253 260 265 267 262 260 262 266 269 274 277 273 267 263 260 259 260 259 257 258 262 263 262 265 269 271 271 272 272 272 274 274 271 269 271 277
226 232 236 241 243 248 254 258 262 267 269 269 267 266 268 268 268 266 264 266 265 263 262 262 262 263 265 265 266 270 273 274 276 277 277 276 276 276 278 281 284 282
221 226 234 244 251 255 260 264 266 267 269 269 266 266 270 268 266 265 264 265 265 263 264 265 266 266 264 264 267 270 271 272 275 278 279 278 276 278 281 284 283 280
222 224 228 236 245 254 265 272 277 278 279 281 282 284 286 282 278 277 273 269 266 263 263 265 267 270 271 268 268 269 270 271 273 276 278 278 278 278 279 279 279 281
233 232 233 237 242 250 259 264 269 274 277 281 283 284 284 282 280 280 277 274 272 271 270 271 273 274 273 271 268 267 268 269 270 272 273 275 277 278 279 278 278 279
244 244 243 245 250 256 259 259 261 265 269 274 278 281 282 281 280 279 277 277 278 278 278 279 279 277 272 271 269 265 265 266 266 267 269 270 272 274 277 277 276 276
247 249 248 250 256 260 260 260 262 265 269 274 277 279 281 281 281 281 281 281 280 280 280 280 279 277 273 272 269 265 264 264 264 264 265 265 266 268 271 274 274 271
251 250 248 249 253 258 263 267 269 270 271 274 276 277 277 278 279 279 279 280 280 280 279 278 277 276 274 274 273 272 268 263 261 261 260 260 260 261 264 268 267 262
264 263 262 260 260 262 265 269 270 271 271 271 272 274 274 275 275 275 275 277 278 277 276 276 277 276 276 276 275 273 268 261 257 257 256 257 256 254 256 258 257 253